Location: Arcusa
(42.3167°N, 0.0833°W)
Time: 16:34:01
(UTC+00:00)

ATLAS 2AS CENTAUR R/B - Pass Details

Date: 25 January 2020
Orbit: 929 x 1283 km, 63.7° (Epoch: 08 February)

Event Time Altitude Azimuth Distance (km) Brightness Sun altitude
Exits shadow 06:25:25 - 256° (WSW) 3,548 4.9 -10.4°
Reaches altitude 10° 06:26:22 10° 260° (W) 3,270 4.7 -10.2°
Maximum altitude 06:33:27 34° 322° (NW) 1,999 3.7 -9.0°
Drops below altitude 10° 06:40:31 10° 25° (NNE) 3,248 5.3 -7.7°
Sets 06:43:39 0° 35° (NE) 4,184 6.0 -7.2°
